When you browse on this site, cookies collect data to enhance your experience and personalize the content and advertising you see.
Visit our Privacy Policy to learn more. By continuing to use the site, you agree to this use of cookies and data.
  • In Österreich
  • Länderverzeichnis
  • Für 7 Tage
  • Wassertemperatur
  • Wetterkarte
  • News
  • Widgets
  • user-avatar
    Anmelden

    Stündliche Wetter La Vega

    Heute, 19 Januar, Sonntag

    Zeit Temperatur Niederschläge Wind Luftdruck Luftfeuchtigkeit
    00:00 +23°C° 0 mm 2 m/S 660 mmHg 72%
    01:00 +23°C° 0 mm 2 m/S 660 mmHg 71%
    02:00 +21°C° 0 mm 2 m/S 660 mmHg 72%
    03:00 +21°C° 0 mm 2 m/S 659 mmHg 73%
    04:00 +21°C° 0 mm 2 m/S 659 mmHg 73%
    05:00 +21°C° 0 mm 2 m/S 659 mmHg 73%
    06:00 +21°C° 0 mm 2 m/S 660 mmHg 74%
    07:00 +21°C° 0 mm 2 m/S 660 mmHg 74%
    08:00 +25°C° 0 mm 1 m/S 661 mmHg 65%
    09:00 +28°C° 0 mm 1 m/S 662 mmHg 56%
    10:00 +30°C° 0 mm 1 m/S 663 mmHg 48%
    11:00 +31°C° 0 mm 1 m/S 662 mmHg 48%
    12:00 +31°C° 0 mm 1 m/S 661 mmHg 49%
    13:00 +31°C° 0 mm 1 m/S 660 mmHg 49%
    14:00 +31°C° 0.1 mm 1 m/S 659 mmHg 51%
    15:00 +30°C° 0.1 mm 1 m/S 659 mmHg 54%
    16:00 +30°C° 0.1 mm 1 m/S 658 mmHg 56%
    17:00 +28°C° 0.3 mm 1 m/S 658 mmHg 64%
    18:00 +26°C° 0.3 mm 1 m/S 659 mmHg 73%
    19:00 +24°C° 0.3 mm 1 m/S 659 mmHg 81%
    20:00 +24°C° 0.4 mm 1 m/S 659 mmHg 82%
    21:00 +24°C° 0.4 mm 1 m/S 660 mmHg 82%
    22:00 +23°C° 0.4 mm 1 m/S 660 mmHg 82%
    23:00 +23°C° 0.2 mm 1 m/S 660 mmHg 82%

    Morgen, 20 Januar, Montag

    Zeit Temperatur Niederschläge Wind Luftdruck Luftfeuchtigkeit
    00:00 +21°C° 0.2 mm 2 m/S 660 mmHg 83%
    01:00 +21°C° 0.2 mm 2 m/S 660 mmHg 83%
    02:00 +20°C° 0.2 mm 2 m/S 659 mmHg 82%
    03:00 +20°C° 0.2 mm 2 m/S 659 mmHg 81%
    04:00 +21°C° 0.2 mm 1 m/S 659 mmHg 80%
    05:00 +21°C° 0.4 mm 1 m/S 659 mmHg 80%
    06:00 +21°C° 0.4 mm 1 m/S 660 mmHg 80%
    07:00 +21°C° 0.4 mm 1 m/S 660 mmHg 79%
    08:00 +23°C° 0.2 mm 1 m/S 661 mmHg 74%
    09:00 +25°C° 0.2 mm 1 m/S 662 mmHg 68%
    10:00 +28°C° 0.2 mm 1 m/S 662 mmHg 62%
    11:00 +28°C° 0.3 mm 1 m/S 662 mmHg 62%
    12:00 +29°C° 0.3 mm 1 m/S 661 mmHg 62%
    13:00 +29°C° 0.3 mm 2 m/S 661 mmHg 62%
    14:00 +28°C° 1.2 mm 1 m/S 660 mmHg 68%
    15:00 +27°C° 1.2 mm 1 m/S 659 mmHg 74%
    16:00 +26°C° 1.2 mm 1 m/S 658 mmHg 80%
    17:00 +25°C° 1.8 mm 1 m/S 659 mmHg 85%
    18:00 +22°C° 1.8 mm 0 m/S 659 mmHg 89%
    19:00 +21°C° 1.8 mm 0 m/S 659 mmHg 93%
    20:00 +21°C° 1.1 mm 0 m/S 659 mmHg 92%
    21:00 +23°C° 1.1 mm 1 m/S 660 mmHg 91%
    22:00 +23°C° 1.1 mm 1 m/S 660 mmHg 90%
    23:00 +23°C° 0.8 mm 1 m/S 660 mmHg 91%

    übermorgen, 21 Januar, Dienstag

    Zeit Temperatur Niederschläge Wind Luftdruck Luftfeuchtigkeit
    00:00 +23°C° 0.8 mm 1 m/S 660 mmHg 92%
    01:00 +22°C° 0.8 mm 1 m/S 660 mmHg 92%
    02:00 +22°C° 0.6 mm 1 m/S 659 mmHg 92%
    03:00 +22°C° 0.6 mm 1 m/S 659 mmHg 92%
    04:00 +22°C° 0.6 mm 1 m/S 659 mmHg 91%
    05:00 +22°C° 0.1 mm 1 m/S 659 mmHg 90%
    06:00 +20°C° 0.1 mm 0 m/S 660 mmHg 90%
    07:00 +20°C° 0.1 mm 0 m/S 660 mmHg 89%
    08:00 +23°C° 0.3 mm 1 m/S 661 mmHg 88%
    09:00 +24°C° 0.3 mm 1 m/S 661 mmHg 87%
    10:00 +25°C° 0.3 mm 1 m/S 661 mmHg 86%
    11:00 +25°C° 1.4 mm 1 m/S 661 mmHg 85%
    12:00 +26°C° 1.4 mm 1 m/S 660 mmHg 85%
    13:00 +26°C° 1.4 mm 1 m/S 660 mmHg 84%
    14:00 +25°C° 2 mm 1 m/S 659 mmHg 87%
    15:00 +25°C° 2 mm 1 m/S 659 mmHg 90%
    16:00 +24°C° 2 mm 1 m/S 658 mmHg 93%
    17:00 +23°C° 1.2 mm 1 m/S 659 mmHg 94%
    18:00 +21°C° 1.2 mm 0 m/S 659 mmHg 95%
    19:00 +20°C° 1.2 mm 0 m/S 659 mmHg 96%
    20:00 +20°C° 1.4 mm 0 m/S 660 mmHg 95%
    21:00 +20°C° 1.4 mm 0 m/S 660 mmHg 95%
    22:00 +22°C° 1.4 mm 1 m/S 661 mmHg 94%
    23:00 +19°C° 1.4 mm 0 m/S 660 mmHg 95%

    22 Januar, Mittwoch

    Zeit Temperatur Niederschläge Wind Luftdruck Luftfeuchtigkeit
    00:00 +19°C° 1.4 mm 0 m/S 660 mmHg 95%
    01:00 +19°C° 1.4 mm 0 m/S 660 mmHg 96%
    02:00 +19°C° 1.6 mm 0 m/S 660 mmHg 96%
    03:00 +19°C° 1.6 mm 0 m/S 659 mmHg 96%
    04:00 +19°C° 1.6 mm 0 m/S 659 mmHg 96%
    05:00 +19°C° 0.7 mm 0 m/S 659 mmHg 96%
    06:00 +19°C° 0.7 mm 0 m/S 660 mmHg 96%
    07:00 +19°C° 0.7 mm 0 m/S 660 mmHg 97%
    08:00 +19°C° 1.2 mm 0 m/S 660 mmHg 96%
    09:00 +20°C° 1.2 mm 0 m/S 661 mmHg 95%
    10:00 +20°C° 1.2 mm 0 m/S 661 mmHg 94%
    11:00 +21°C° 0.3 mm 0 m/S 661 mmHg 90%
    12:00 +22°C° 0.3 mm 0 m/S 661 mmHg 85%
    13:00 +23°C° 0.3 mm 0 m/S 660 mmHg 80%
    14:00 +23°C° 0.4 mm 0 m/S 660 mmHg 80%
    15:00 +25°C° 0.4 mm 1 m/S 659 mmHg 80%
    16:00 +26°C° 0.4 mm 1 m/S 658 mmHg 79%
    17:00 +24°C° 0.6 mm 1 m/S 658 mmHg 85%
    18:00 +21°C° 0.6 mm 0 m/S 659 mmHg 90%
    19:00 +20°C° 0.6 mm 0 m/S 659 mmHg 95%
    20:00 +20°C° 0.5 mm 0 m/S 659 mmHg 95%
    21:00 +19°C° 0.5 mm 0 m/S 660 mmHg 94%
    22:00 +21°C° 0.5 mm 1 m/S 660 mmHg 94%
    23:00 +21°C° 0.4 mm 1 m/S 660 mmHg 95%

    23 Januar, Donnerstag

    Zeit Temperatur Niederschläge Wind Luftdruck Luftfeuchtigkeit
    00:00 +21°C° 0.4 mm 1 m/S 660 mmHg 96%
    01:00 +21°C° 0.4 mm 1 m/S 660 mmHg 97%
    02:00 +19°C° 0.6 mm 0 m/S 659 mmHg 97%
    03:00 +19°C° 0.6 mm 0 m/S 659 mmHg 97%
    04:00 +19°C° 0.6 mm 0 m/S 659 mmHg 97%
    05:00 +19°C° 0.1 mm 0 m/S 659 mmHg 97%
    06:00 +19°C° 0.1 mm 0 m/S 660 mmHg 96%
    07:00 +19°C° 0.1 mm 0 m/S 660 mmHg 96%
    08:00 +22°C° 0.3 mm 1 m/S 661 mmHg 93%
    09:00 +23°C° 0.3 mm 1 m/S 661 mmHg 90%
    10:00 +24°C° 0.3 mm 1 m/S 662 mmHg 87%
    11:00 +25°C° 1 mm 1 m/S 661 mmHg 84%
    12:00 +26°C° 1 mm 1 m/S 661 mmHg 81%
    13:00 +27°C° 1 mm 2 m/S 660 mmHg 78%
    14:00 +27°C° 0.6 mm 2 m/S 659 mmHg 78%
    15:00 +26°C° 0.6 mm 1 m/S 659 mmHg 79%
    16:00 +26°C° 0.6 mm 1 m/S 658 mmHg 79%
    17:00 +25°C° 0.7 mm 1 m/S 658 mmHg 85%
    18:00 +23°C° 0.7 mm 1 m/S 658 mmHg 91%
    19:00 +20°C° 0.7 mm 0 m/S 659 mmHg 98%
    20:00 +20°C° 0.5 mm 0 m/S 659 mmHg 97%
    21:00 +21°C° 0.5 mm 1 m/S 660 mmHg 96%
    22:00 +21°C° 0.5 mm 1 m/S 660 mmHg 96%
    23:00 +21°C° 0.1 mm 1 m/S 660 mmHg 95%

    24 Januar, Freitag

    Zeit Temperatur Niederschläge Wind Luftdruck Luftfeuchtigkeit
    00:00 +21°C° 0.1 mm 1 m/S 659 mmHg 95%
    01:00 +21°C° 0.1 mm 1 m/S 659 mmHg 95%
    02:00 +21°C° 0 mm 1 m/S 659 mmHg 95%
    03:00 +21°C° 0 mm 1 m/S 659 mmHg 94%
    04:00 +19°C° 0 mm 0 m/S 658 mmHg 94%
    05:00 +19°C° 0 mm 0 m/S 659 mmHg 93%
    06:00 +19°C° 0 mm 0 m/S 660 mmHg 92%
    07:00 +19°C° 0 mm 0 m/S 660 mmHg 92%
    08:00 +23°C° 0 mm 1 m/S 661 mmHg 85%
    09:00 +25°C° 0 mm 1 m/S 661 mmHg 79%
    10:00 +26°C° 0 mm 1 m/S 662 mmHg 72%
    11:00 +27°C° 0.2 mm 1 m/S 661 mmHg 71%
    12:00 +27°C° 0.2 mm 2 m/S 661 mmHg 70%
    13:00 +28°C° 0.2 mm 2 m/S 660 mmHg 69%
    14:00 +27°C° 0.3 mm 2 m/S 659 mmHg 72%
    15:00 +27°C° 0.3 mm 1 m/S 659 mmHg 74%
    16:00 +27°C° 0.3 mm 1 m/S 658 mmHg 77%
    17:00 +25°C° 0.5 mm 1 m/S 658 mmHg 83%
    18:00 +24°C° 0.5 mm 1 m/S 659 mmHg 90%
    19:00 +22°C° 0.5 mm 1 m/S 659 mmHg 96%
    20:00 +22°C° 0 mm 1 m/S 659 mmHg 96%
    21:00 +22°C° 0 mm 1 m/S 660 mmHg 96%
    22:00 +21°C° 0 mm 1 m/S 660 mmHg 95%
    23:00 +21°C° 0 mm 1 m/S 660 mmHg 95%
    Mehr zeigen